Time,TemperatureF,DewpointF,PressureIn,WindDirection,WindDirectionDegrees,WindSpeedMPH,WindSpeedGustMPH,Humidity,HourlyPrecipIn,Conditions,Clouds,dailyrainin,SoftwareType,DateUTC
2014-08-28 00:01:00,70.9,56.8,29.74,WSW,237,6.7,10.1,61,0.00,,---,0.00,VWS V14.01,2014-08-28 04:01:00,
2014-08-28 00:06:00,70.9,56.3,29.71,SW,218,6.9,8.7,60,0.00,,---,0.00,VWS V14.01,2014-08-28 04:06:00,
2014-08-28 00:11:00,70.9,56.3,29.71,SW,233,4.9,7.4,60,0.00,,---,0.00,VWS V14.01,2014-08-28 04:11:00,
2014-08-28 00:16:00,71.1,56.5,29.71,SSW,212,6.3,8.3,60,0.00,,---,0.00,VWS V14.01,2014-08-28 04:16:00,
2014-08-28 00:21:00,70.9,56.8,29.71,SW,220,6.3,7.4,61,0.00,,---,0.00,VWS V14.01,2014-08-28 04:21:00,
2014-08-28 00:26:00,70.9,57.7,29.71,SSW,213,5.4,7.4,63,0.00,,---,0.00,VWS V14.01,2014-08-28 04:26:00,
2014-08-28 00:31:00,70.9,58.1,29.71,SW,230,3.6,6.9,64,0.00,,---,0.00,VWS V14.01,2014-08-28 04:31:00,
2014-08-28 00:36:00,70.9,57.2,29.71,WSW,240,9.6,9.6,62,0.00,,---,0.00,VWS V14.01,2014-08-28 04:36:00,
2014-08-28 00:41:00,70.9,57.2,29.71,SW,231,4.0,5.8,62,0.00,,---,0.00,VWS V14.01,2014-08-28 04:41:00,
2014-08-28 00:46:00,70.9,56.8,29.71,SW,234,5.4,5.4,61,0.00,,---,0.00,VWS V14.01,2014-08-28 04:46:00,
2014-08-28 00:51:00,70.9,56.3,29.71,SW,217,5.4,6.3,60,0.00,,---,0.00,VWS V14.01,2014-08-28 04:51:00,
2014-08-28 00:56:00,71.1,56.0,29.71,SW,222,4.0,5.4,59,0.00,,---,0.00,VWS V14.01,2014-08-28 04:56:00,
2014-08-28 01:01:00,71.1,55.5,29.71,SW,221,5.4,9.2,58,0.00,,---,0.00,VWS V14.01,2014-08-28 05:01:00,
2014-08-28 01:06:00,71.2,55.2,29.71,SW,221,0.0,3.6,57,0.00,,---,0.00,VWS V14.01,2014-08-28 05:06:00,
2014-08-28 01:11:00,71.2,55.2,29.71,SSW,211,4.0,7.4,57,0.00,,---,0.00,VWS V14.01,2014-08-28 05:11:00,
2014-08-28 01:16:00,71.2,55.2,29.71,SW,220,6.7,6.7,57,0.00,,---,0.00,VWS V14.01,2014-08-28 05:16:00,
2014-08-28 01:20:00,71.2,55.2,29.68,WSW,248,6.3,6.7,57,0.00,,---,0.00,VWS V14.01,2014-08-28 05:20:00,
2014-08-28 01:25:00,71.4,55.4,29.68,SW,231,8.7,9.6,57,0.00,,---,0.00,VWS V14.01,2014-08-28 05:25:00,
2014-08-28 01:30:00,71.6,55.1,29.68,SW,218,9.2,12.1,56,0.00,,---,0.00,VWS V14.01,2014-08-28 05:30:00,
2014-08-28 01:35:00,71.8,55.3,29.68,SW,216,4.5,8.7,56,0.00,,---,0.00,VWS V14.01,2014-08-28 05:35:00,
2014-08-28 01:40:00,71.8,55.8,29.68,SW,218,4.9,9.2,57,0.00,,---,0.00,VWS V14.01,2014-08-28 05:40:00,
2014-08-28 01:45:00,72.0,56.4,29.68,WSW,247,6.9,8.7,58,0.00,,---,0.00,VWS V14.01,2014-08-28 05:45:00,
2014-08-28 01:50:00,72.0,55.9,29.68,SW,219,7.4,11.0,57,0.00,,---,0.00,VWS V14.01,2014-08-28 05:50:00,
2014-08-28 01:55:00,72.0,55.9,29.68,SW,234,4.9,7.8,57,0.00,,---,0.00,VWS V14.01,2014-08-28 05:55:00,
2014-08-28 02:00:00,72.1,56.1,29.68,SW,233,7.4,9.2,57,0.00,,---,0.00,VWS V14.01,2014-08-28 06:00:00,
2014-08-28 02:05:00,72.1,56.6,29.68,WSW,243,11.0,11.6,58,0.00,,---,0.00,VWS V14.01,2014-08-28 06:05:00,
2014-08-28 02:10:00,72.0,56.9,29.68,WSW,242,8.3,8.3,59,0.00,,---,0.00,VWS V14.01,2014-08-28 06:10:00,
2014-08-28 02:15:00,72.0,57.3,29.68,SW,232,4.9,7.8,60,0.00,,---,0.00,VWS V14.01,2014-08-28 06:15:00,
2014-08-28 02:20:00,72.0,57.8,29.68,West,261,7.4,7.4,61,0.00,,---,0.00,VWS V14.01,2014-08-28 06:20:00,
2014-08-28 02:25:00,72.0,58.7,29.68,SW,228,8.3,8.3,63,0.00,,---,0.00,VWS V14.01,2014-08-28 06:25:00,
2014-08-28 02:30:00,72.0,59.6,29.68,WSW,250,5.8,10.5,65,0.00,,---,0.00,VWS V14.01,2014-08-28 06:30:00,
2014-08-28 02:35:00,71.6,59.7,29.65,SSW,200,6.3,9.6,66,0.00,,---,0.00,VWS V14.01,2014-08-28 06:35:00,
2014-08-28 02:40:00,71.4,59.9,29.65,SW,218,8.3,13.0,67,0.00,,---,0.00,VWS V14.01,2014-08-28 06:40:00,
2014-08-28 02:45:00,71.4,60.7,29.65,SSW,209,4.5,6.7,69,0.00,,---,0.00,VWS V14.01,2014-08-28 06:45:00,
2014-08-28 02:50:00,71.2,61.0,29.65,West,264,8.3,8.3,70,0.00,,---,0.00,VWS V14.01,2014-08-28 06:50:00,
2014-08-28 02:55:00,71.4,61.1,29.65,SW,217,5.4,5.8,70,0.00,,---,0.00,VWS V14.01,2014-08-28 06:55:00,
2014-08-28 03:00:00,71.2,61.4,29.65,SW,234,5.8,9.6,71,0.00,,---,0.00,VWS V14.01,2014-08-28 07:00:00,
2014-08-28 03:05:00,71.4,61.9,29.65,WSW,240,6.7,6.9,72,0.00,,---,0.00,VWS V14.01,2014-08-28 07:05:00,
2014-08-28 03:10:00,71.2,62.2,29.65,West,261,10.1,10.1,73,0.00,,---,0.00,VWS V14.01,2014-08-28 07:10:00,
2014-08-28 03:15:00,71.1,62.7,29.65,West,261,8.3,9.6,75,0.00,,---,0.00,VWS V14.01,2014-08-28 07:15:00,
2014-08-28 03:20:00,71.1,62.7,29.65,WSW,250,9.6,10.1,75,0.00,,---,0.00,VWS V14.01,2014-08-28 07:20:00,
2014-08-28 03:25:00,71.1,63.1,29.65,WSW,247,8.3,10.5,76,0.00,,---,0.00,VWS V14.01,2014-08-28 07:25:00,
2014-08-28 03:30:00,70.9,63.3,29.65,SW,225,2.7,4.5,77,0.00,,---,0.00,VWS V14.01,2014-08-28 07:30:00,
2014-08-28 03:35:00,70.9,63.3,29.65,SSW,213,5.4,7.4,77,0.00,,---,0.00,VWS V14.01,2014-08-28 07:35:00,
2014-08-28 03:40:00,70.9,63.3,29.65,West,263,5.8,6.7,77,0.00,,---,0.00,VWS V14.01,2014-08-28 07:40:00,
2014-08-28 03:45:00,70.7,63.5,29.65,WSW,245,0.0,0.0,78,0.00,,---,0.00,VWS V14.01,2014-08-28 07:45:00,
2014-08-28 03:50:00,70.3,63.2,29.65,WSW,240,3.6,4.5,78,0.00,,---,0.00,VWS V14.01,2014-08-28 07:50:00,
2014-08-28 03:55:00,70.2,63.3,29.65,WSW,246,4.5,6.3,79,0.00,,---,0.00,VWS V14.01,2014-08-28 07:55:00,
2014-08-28 04:00:00,70.0,63.5,29.65,WSW,237,4.9,4.9,80,0.00,,---,0.00,VWS V14.01,2014-08-28 08:00:00,
2014-08-28 04:05:00,70.0,64.2,29.65,WSW,252,6.9,7.4,82,0.00,,---,0.00,VWS V14.01,2014-08-28 08:05:00,
2014-08-28 04:10:00,70.0,64.6,29.65,West,262,4.5,7.8,83,0.00,,---,0.00,VWS V14.01,2014-08-28 08:10:00,
2014-08-28 04:15:00,69.8,65.1,29.65,West,274,5.4,5.4,85,0.00,,---,0.00,VWS V14.01,2014-08-28 08:15:00,
2014-08-28 04:20:00,69.8,65.4,29.65,WSW,256,8.7,8.7,86,0.00,,---,0.00,VWS V14.01,2014-08-28 08:20:00,
2014-08-28 04:25:00,69.8,66.1,29.65,WSW,252,4.9,6.7,88,0.00,,---,0.00,VWS V14.01,2014-08-28 08:25:00,
2014-08-28 04:30:00,69.6,66.2,29.65,West,278,5.4,6.7,89,0.00,,---,0.00,VWS V14.01,2014-08-28 08:30:00,
2014-08-28 04:35:00,69.6,66.6,29.65,West,263,4.5,5.8,90,0.00,,---,0.00,VWS V14.01,2014-08-28 08:35:00,
2014-08-28 04:40:00,69.6,66.6,29.65,WNW,297,4.9,6.7,90,0.00,,---,0.00,VWS V14.01,2014-08-28 08:40:00,
2014-08-28 04:45:00,69.6,66.6,29.65,West,281,6.7,7.4,90,0.00,,---,0.00,VWS V14.01,2014-08-28 08:45:00,
2014-08-28 04:50:00,69.8,66.7,29.65,NW,304,3.6,6.7,90,0.00,,---,0.00,VWS V14.01,2014-08-28 08:50:00,
2014-08-28 04:55:00,69.8,66.7,29.65,NW,304,4.0,4.9,90,0.00,,---,0.00,VWS V14.01,2014-08-28 08:55:00,
2014-08-28 05:00:00,70.0,66.6,29.65,WNW,289,6.9,6.9,89,0.00,,---,0.00,VWS V14.01,2014-08-28 09:00:00,
2014-08-28 05:05:00,70.0,66.6,29.65,WNW,294,6.9,6.9,89,0.00,,---,0.00,VWS V14.01,2014-08-28 09:05:00,
2014-08-28 05:10:00,70.0,66.6,29.65,NW,305,4.5,6.3,89,0.00,,---,0.00,VWS V14.01,2014-08-28 09:10:00,
2014-08-28 05:15:00,70.2,66.8,29.65,WNW,300,8.3,10.1,89,0.00,,---,0.00,VWS V14.01,2014-08-28 09:15:00,
2014-08-28 05:20:00,70.2,66.4,29.65,NW,306,10.5,11.0,88,0.00,,---,0.00,VWS V14.01,2014-08-28 09:20:00,
2014-08-28 05:25:00,70.3,66.3,29.65,NNW,330,10.5,10.5,87,0.00,,---,0.00,VWS V14.01,2014-08-28 09:25:00,
2014-08-28 05:30:00,70.3,66.0,29.65,NNW,330,8.3,9.2,86,0.00,,---,0.00,VWS V14.01,2014-08-28 09:30:00,
2014-08-28 05:35:00,70.3,66.0,29.62,West,269,8.7,9.6,86,0.00,,---,0.00,VWS V14.01,2014-08-28 09:35:00,
2014-08-28 05:40:00,70.2,65.8,29.62,NW,319,13.0,13.0,86,0.00,,---,0.00,VWS V14.01,2014-08-28 09:40:00,
2014-08-28 05:45:00,70.0,65.6,29.62,WNW,295,6.9,8.3,86,0.00,,---,0.00,VWS V14.01,2014-08-28 09:45:00,
2014-08-28 05:50:00,70.0,65.6,29.62,NNW,327,11.0,11.0,86,0.00,,---,0.00,VWS V14.01,2014-08-28 09:50:00,
2014-08-28 05:55:00,69.8,65.8,29.62,NW,316,10.1,11.6,87,0.00,,---,0.00,VWS V14.01,2014-08-28 09:55:00,
2014-08-28 06:00:00,69.6,65.9,29.62,NW,306,12.1,12.5,88,0.00,,---,0.00,VWS V14.01,2014-08-28 10:00:00,
2014-08-28 06:05:00,69.6,65.9,29.65,NNW,331,9.2,9.2,88,0.00,,---,0.00,VWS V14.01,2014-08-28 10:05:00,
2014-08-28 06:10:00,69.4,65.7,29.65,North,351,8.3,8.3,88,0.00,,---,0.00,VWS V14.01,2014-08-28 10:10:00,
2014-08-28 06:15:00,69.4,65.1,29.65,NW,326,9.6,11.2,86,0.00,,---,0.00,VWS V14.01,2014-08-28 10:15:00,
2014-08-28 06:20:00,69.3,64.9,29.65,WNW,297,4.5,4.5,86,0.00,,---,0.00,VWS V14.01,2014-08-28 10:20:00,
2014-08-28 06:25:00,69.1,64.4,29.65,NNW,330,9.6,9.6,85,0.00,,---,0.00,VWS V14.01,2014-08-28 10:25:00,
2014-08-28 06:30:00,69.1,64.1,29.65,NNW,341,11.0,11.0,84,0.00,,---,0.00,VWS V14.01,2014-08-28 10:30:00,
2014-08-28 06:35:00,69.1,64.4,29.65,NW,307,12.5,13.0,85,0.00,,---,0.00,VWS V14.01,2014-08-28 10:35:00,
2014-08-28 06:40:00,69.3,64.2,29.65,NNW,327,13.0,13.9,84,0.00,,---,0.00,VWS V14.01,2014-08-28 10:40:00,
2014-08-28 06:45:00,69.3,63.9,29.65,NW,313,9.2,10.5,83,0.00,,---,0.00,VWS V14.01,2014-08-28 10:45:00,
2014-08-28 06:50:00,69.6,63.5,29.65,North,351,6.9,6.9,81,0.00,,---,0.00,VWS V14.01,2014-08-28 10:50:00,
2014-08-28 06:55:00,69.8,63.7,29.65,NNW,330,12.1,12.1,81,0.00,,---,0.00,VWS V14.01,2014-08-28 10:55:00,
2014-08-28 07:00:00,70.0,63.5,29.65,NW,304,8.3,11.0,80,0.00,,---,0.00,VWS V14.01,2014-08-28 11:00:00,
2014-08-28 07:05:00,70.3,63.2,29.65,WNW,287,8.7,12.1,78,0.00,,---,0.00,VWS V14.01,2014-08-28 11:05:00,
2014-08-28 07:10:00,70.5,63.0,29.65,WNW,296,9.6,14.8,77,0.00,,---,0.00,VWS V14.01,2014-08-28 11:10:00,
2014-08-28 07:15:00,70.7,62.8,29.65,West,266,7.4,12.1,76,0.00,,---,0.00,VWS V14.01,2014-08-28 11:15:00,
2014-08-28 07:20:00,70.9,62.6,29.65,NNW,336,8.7,11.2,75,0.00,,---,0.00,VWS V14.01,2014-08-28 11:20:00,
2014-08-28 07:25:00,70.9,61.8,29.65,NNW,335,11.6,13.4,73,0.00,,---,0.00,VWS V14.01,2014-08-28 11:25:00,
2014-08-28 07:30:00,70.9,62.2,29.65,SW,231,10.5,13.9,74,0.00,,---,0.00,VWS V14.01,2014-08-28 11:30:00,
2014-08-28 07:35:00,71.4,62.7,29.65,NW,322,12.1,14.8,74,0.00,,---,0.00,VWS V14.01,2014-08-28 11:35:00,
2014-08-28 07:40:00,71.4,63.1,29.65,WNW,296,9.6,15.2,75,0.00,,---,0.00,VWS V14.01,2014-08-28 11:40:00,
2014-08-28 07:45:00,71.4,63.8,29.65,NW,308,10.5,15.4,77,0.00,,---,0.00,VWS V14.01,2014-08-28 11:45:00,
2014-08-28 07:50:00,71.1,63.9,29.65,NNW,341,8.7,15.2,78,0.00,,---,0.00,VWS V14.01,2014-08-28 11:50:00,
2014-08-28 07:55:00,71.2,64.0,29.65,NNW,337,14.8,14.8,78,0.00,,---,0.00,VWS V14.01,2014-08-28 11:55:00,
2014-08-28 08:00:00,71.2,63.7,29.65,NNW,344,10.5,17.2,77,0.00,,---,0.00,VWS V14.01,2014-08-28 12:00:00,
2014-08-28 08:05:00,71.2,64.0,29.65,NNW,332,7.8,17.7,78,0.00,,---,0.00,VWS V14.01,2014-08-28 12:05:00,
2014-08-28 08:10:00,71.2,64.0,29.65,NNW,327,21.5,21.5,78,0.00,,---,0.00,VWS V14.01,2014-08-28 12:10:00,
2014-08-28 08:15:00,71.1,64.2,29.65,NNE,12,6.7,15.2,79,0.00,,---,0.00,VWS V14.01,2014-08-28 12:15:00,
2014-08-28 08:20:00,71.2,64.0,29.65,West,281,13.4,16.3,78,0.00,,---,0.00,VWS V14.01,2014-08-28 12:20:00,
2014-08-28 08:25:00,71.6,64.0,29.65,NW,310,12.5,18.1,77,0.00,,---,0.00,VWS V14.01,2014-08-28 12:25:00,
2014-08-28 08:29:00,71.6,64.0,29.65,NW,311,12.5,17.7,77,0.00,,---,0.00,VWS V14.01,2014-08-28 12:29:00,
2014-08-28 08:34:00,71.6,63.6,29.65,NNW,335,12.1,18.6,76,0.00,,---,0.00,VWS V14.01,2014-08-28 12:34:00,
2014-08-28 08:39:00,71.6,63.6,29.65,NNW,331,11.0,17.2,76,0.00,,---,0.00,VWS V14.01,2014-08-28 12:39:00,
2014-08-28 08:44:00,71.4,63.1,29.65,WNW,293,13.9,14.8,75,0.00,,---,0.00,VWS V14.01,2014-08-28 12:44:00,
2014-08-28 08:49:00,71.6,63.3,29.65,NNW,327,11.0,18.6,75,0.00,,---,0.00,VWS V14.01,2014-08-28 12:49:00,
2014-08-28 08:54:00,72.3,62.8,29.65,NNW,335,10.5,15.2,72,0.00,,---,0.00,VWS V14.01,2014-08-28 12:54:00,
2014-08-28 08:59:00,72.0,62.8,29.65,NNW,327,13.9,16.3,73,0.00,,---,0.00,VWS V14.01,2014-08-28 12:59:00,
2014-08-28 09:04:00,72.5,62.6,29.65,NW,314,12.5,14.3,71,0.00,,---,0.00,VWS V14.01,2014-08-28 13:04:00,
2014-08-28 09:09:00,72.1,62.6,29.65,NW,309,0.0,0.0,72,0.00,,---,0.00,VWS V14.01,2014-08-28 13:09:00,
2014-08-28 09:14:00,72.0,62.5,29.65,NNW,340,0.0,0.0,72,0.00,,---,0.00,VWS V14.01,2014-08-28 13:14:00,
2014-08-28 09:19:00,72.5,62.6,29.65,WNW,291,0.0,0.0,71,0.00,,---,0.00,VWS V14.01,2014-08-28 13:19:00,
2014-08-28 09:24:00,72.7,62.7,29.65,NW,304,0.0,0.0,71,0.00,,---,0.00,VWS V14.01,2014-08-28 13:24:00,
2014-08-28 09:29:00,72.1,62.2,29.65,WNW,297,0.0,0.0,71,0.00,,---,0.00,VWS V14.01,2014-08-28 13:29:00,
2014-08-28 09:34:00,72.1,61.8,29.65,WNW,301,0.0,0.0,70,0.00,,---,0.00,VWS V14.01,2014-08-28 13:34:00,
2014-08-28 09:39:00,72.1,61.8,29.65,WNW,290,0.0,0.0,70,0.00,,---,0.00,VWS V14.01,2014-08-28 13:39:00,
2014-08-28 09:44:00,72.3,61.6,29.65,WNW,283,0.0,0.0,69,0.00,,---,0.00,VWS V14.01,2014-08-28 13:44:00,
2014-08-28 09:49:00,72.3,61.6,29.65,WNW,300,0.0,0.0,69,0.00,,---,0.00,VWS V14.01,2014-08-28 13:49:00,
2014-08-28 09:54:00,72.5,61.3,29.65,NNE,13,0.0,0.0,68,0.00,,---,0.00,VWS V14.01,2014-08-28 13:54:00,
2014-08-28 09:59:00,71.8,61.1,29.65,WNW,303,0.0,0.0,69,0.00,,---,0.00,VWS V14.01,2014-08-28 13:59:00,
2014-08-28 10:04:00,72.9,61.7,29.65,NW,311,10.1,18.1,68,0.00,,---,0.00,VWS V14.01,2014-08-28 14:04:00,
2014-08-28 10:09:00,72.5,61.3,29.65,NNE,28,14.3,19.9,68,0.00,,---,0.00,VWS V14.01,2014-08-28 14:09:00,
2014-08-28 10:14:00,72.1,60.2,29.65,NW,321,19.9,21.9,66,0.00,,---,0.00,VWS V14.01,2014-08-28 14:14:00,
2014-08-28 10:19:00,72.3,61.2,29.65,NW,321,0.0,7.4,68,0.00,,---,0.00,VWS V14.01,2014-08-28 14:19:00,
2014-08-28 10:24:00,72.5,60.9,29.65,North,4,0.0,0.0,67,0.00,,---,0.00,VWS V14.01,2014-08-28 14:24:00,
2014-08-28 10:29:00,72.3,59.9,29.65,NW,304,0.0,0.0,65,0.00,,---,0.00,VWS V14.01,2014-08-28 14:29:00,
2014-08-28 10:34:00,72.7,60.2,29.65,North,3,0.0,0.0,65,0.00,,---,0.00,VWS V14.01,2014-08-28 14:34:00,
2014-08-28 10:39:00,72.5,60.1,29.65,NW,318,0.0,0.0,65,0.00,,---,0.00,VWS V14.01,2014-08-28 14:39:00,
2014-08-28 10:44:00,73.2,60.3,29.65,NW,305,0.0,0.0,64,0.00,,---,0.00,VWS V14.01,2014-08-28 14:44:00,
2014-08-28 10:49:00,72.5,60.5,29.65,NNE,14,0.0,0.0,66,0.00,,---,0.00,VWS V14.01,2014-08-28 14:49:00,
2014-08-28 10:54:00,73.6,60.7,29.65,NNW,329,0.0,0.0,64,0.00,,---,0.00,VWS V14.01,2014-08-28 14:54:00,
2014-08-28 10:59:00,73.9,60.6,29.65,NW,322,0.0,0.0,63,0.00,,---,0.00,VWS V14.01,2014-08-28 14:59:00,
2014-08-28 11:04:00,73.4,59.6,29.65,North,351,0.0,0.0,62,0.00,,---,0.00,VWS V14.01,2014-08-28 15:04:00,
2014-08-28 11:09:00,73.8,60.4,29.65,NNW,330,0.0,0.0,63,0.00,,---,0.00,VWS V14.01,2014-08-28 15:09:00,
2014-08-28 11:14:00,73.8,60.4,29.65,NW,319,0.0,0.0,63,0.00,,---,0.00,VWS V14.01,2014-08-28 15:14:00,
2014-08-28 11:19:00,73.0,59.7,29.65,WSW,252,0.0,0.0,63,0.00,,---,0.00,VWS V14.01,2014-08-28 15:19:00,
2014-08-28 11:24:00,73.0,59.7,29.65,NNW,341,0.0,0.0,63,0.00,,---,0.00,VWS V14.01,2014-08-28 15:24:00,
2014-08-28 11:29:00,73.6,60.7,29.65,NNW,327,0.0,0.0,64,0.00,,---,0.00,VWS V14.01,2014-08-28 15:29:00,
2014-08-28 11:34:00,72.7,59.4,29.65,NW,304,0.0,0.0,63,0.00,,---,0.00,VWS V14.01,2014-08-28 15:34:00,
2014-08-28 11:39:00,72.5,59.2,29.65,NNW,335,0.0,0.0,63,0.00,,---,0.00,VWS V14.01,2014-08-28 15:39:00,
2014-08-28 11:44:00,73.2,59.0,29.65,WNW,298,0.0,0.0,61,0.00,,---,0.00,VWS V14.01,2014-08-28 15:44:00,
2014-08-28 11:49:00,73.8,59.9,29.65,North,3,0.0,0.0,62,0.00,,---,0.00,VWS V14.01,2014-08-28 15:49:00,
2014-08-28 11:54:00,72.7,58.0,29.65,North,6,0.0,0.0,60,0.00,,---,0.00,VWS V14.01,2014-08-28 15:54:00,
2014-08-28 11:59:00,73.9,59.2,29.65,NNW,328,0.0,0.0,60,0.00,,---,0.00,VWS V14.01,2014-08-28 15:59:00,
2014-08-28 12:04:00,74.1,58.9,29.65,NW,322,0.0,0.0,59,0.00,,---,0.00,VWS V14.01,2014-08-28 16:04:00,
2014-08-28 12:09:00,73.6,59.3,29.65,NNW,334,0.0,0.0,61,0.00,,---,0.00,VWS V14.01,2014-08-28 16:09:00,
2014-08-28 12:14:00,73.4,60.0,29.65,NW,309,0.0,0.0,63,0.00,,---,0.00,VWS V14.01,2014-08-28 16:14:00,
2014-08-28 12:19:00,74.1,59.8,29.65,NW,323,0.0,0.0,61,0.00,,---,0.00,VWS V14.01,2014-08-28 16:19:00,
2014-08-28 12:24:00,73.6,59.3,29.65,NNW,330,0.0,0.0,61,0.00,,---,0.00,VWS V14.01,2014-08-28 16:24:00,
2014-08-28 12:29:00,72.9,59.1,29.65,WNW,294,0.0,0.0,62,0.00,,---,0.00,VWS V14.01,2014-08-28 16:29:00,
2014-08-28 12:34:00,73.4,59.2,29.65,NNW,344,0.0,0.0,61,0.00,,---,0.00,VWS V14.01,2014-08-28 16:34:00,
2014-08-28 12:39:00,73.8,60.4,29.65,NNW,343,0.0,0.0,63,0.00,,---,0.00,VWS V14.01,2014-08-28 16:39:00,
2014-08-28 12:44:00,73.2,59.9,29.65,NNW,327,0.0,0.0,63,0.00,,---,0.00,VWS V14.01,2014-08-28 16:44:00,
2014-08-28 12:49:00,73.4,59.2,29.65,NW,310,0.0,0.0,61,0.00,,---,0.00,VWS V14.01,2014-08-28 16:49:00,
2014-08-28 12:54:00,72.7,58.5,29.65,NW,308,0.0,0.0,61,0.00,,---,0.00,VWS V14.01,2014-08-28 16:54:00,